Simultaneous Nadir Overpasses (SNOs) Predictions

Prediction of SNOs between AQUA and METOP-A Satellite Orbit:

Table of predicted SNOs for the next 14.0 days since TLE Epoch: 11/22/2019
Index Date (AQUA) Time (AQUA) Lat,Lon (AQUA) SZA (AQUA ) Date (METOP-A) Time (METOP-A) Lat,Lon (METOP-A) SZA (METOP-A ) Distance(km) Time Diff (sec)
1 11/23/2019 18:49:02 75.65,-112.54 96.06 11/23/2019 18:48:30 75.64,-112.48 96.06 1.74 32
2 11/23/2019 19:38:29 -75.71, 54.94 83.88 11/23/2019 19:39:10 -75.72, 55.07 83.87 3.82 41
3 11/26/2019 14:23:17 75.66, -46.14 96.64 11/26/2019 14:22:53 75.67, -46.05 96.64 2.49 24
4 11/26/2019 15:12:44 -75.72, 121.33 83.30 11/26/2019 15:13:34 -75.70, 121.36 83.33 2.93 50
5 11/29/2019 09:07:55 -75.20,-146.04 83.36 11/29/2019 09:06:48 -75.12,-148.65 83.35 74.83 67
6 11/29/2019 09:57:32 75.68, 20.24 97.17 11/29/2019 09:57:16 75.69, 20.37 97.18 3.60 16
7 11/29/2019 10:46:58 -75.69,-172.15 82.82 11/29/2019 10:47:57 -75.72,-172.21 82.79 3.34 59
8 12/02/2019 04:42:15 -75.53, -80.51 82.55 12/02/2019 04:41:03 -75.48, -81.25 82.56 21.42 72
9 12/02/2019 05:31:45 75.66, 86.74 97.61 12/02/2019 05:31:39 75.66, 86.64 97.61 3.00 6
10 12/02/2019 06:21:12 -75.72,-105.79 82.33 12/02/2019 06:22:19 -75.74,-105.78 82.31 2.36 67
11 12/05/2019 00:16:32 -75.66, -14.45 82.00 12/05/2019 00:15:23 -75.64, -14.40 82.01 2.61 69
12 12/05/2019 01:06:00 75.69, 153.09 98.05 12/05/2019 01:06:02 75.68, 153.05 98.03 2.33 2




NCC Satellite Simultaneous Nadir Overpasses (SNOs) Prediction Service
